Location: Unspecified
(0.0000°N, 0.0000°E)
Time: 09:13:55
(UTC+00:00)

Explorer 11/Cluster Stage 4 - All Passes

Search period start: 21 February 2018 00:00
Search period end: 03 March 2018 00:00
Orbit: 467 x 1262 km, 28.8° (Epoch: 20 February)

Date Brightness Start Highest point End Pass type
(mag) Time Alt. Az. Time Alt. Az. Time Alt. Az.
21 Feb - 06:40:29 10° S 06:42:25 12° SSE 06:44:30 10° ESE daylight
21 Feb - 08:25:50 10° SW 08:30:47 68° SSE 08:37:04 10° ENE daylight
21 Feb - 10:14:40 10° W 10:19:53 31° NNW 10:26:06 10° NE daylight
21 Feb - 12:07:40 10° NW 12:10:07 12° NNW 12:12:40 10° N daylight
21 Feb - 17:40:17 10° NNW 17:44:40 16° NNE 17:48:45 10° NE daylight
21 Feb - 19:27:47 10° NW 19:34:43 43° NNE 19:40:26 10° E visible
21 Feb - 21:17:26 10° WNW 21:23:41 49° SSW 21:28:41 10° SE visible
22 Feb - 06:29:43 10° S 06:32:12 15° SSE 06:34:55 10° ESE daylight
22 Feb - 08:15:42 10° WSW 08:20:29 85° SSE 08:26:35 10° ENE daylight
22 Feb - 10:04:56 10° WNW 10:09:39 25° NNW 10:15:12 10° NNE daylight
22 Feb - 17:29:10 10° NNW 17:34:27 19° NNE 17:39:20 10° ENE daylight
22 Feb - 19:17:02 10° NW 19:24:24 53° NNE 19:30:27 10° ESE visible
22 Feb - 21:07:05 10° W 21:13:20 41° SSW 21:18:24 10° SE visible
23 Feb - 06:19:08 10° S 06:21:58 18° SSE 06:25:08 10° ESE daylight
23 Feb - 08:05:38 10° WSW 08:10:14 77° NNW 08:16:04 10° NE daylight
23 Feb - 09:55:22 10° WNW 09:59:28 20° NNW 10:04:12 10° NNE daylight
23 Feb - 17:18:11 10° NNW 17:24:11 22° NNE 17:29:43 10° ENE daylight
23 Feb - 19:06:20 10° NW 19:14:02 64° NNE 19:20:24 10° ESE visible
23 Feb - 20:56:47 10° W 21:02:59 34° SSW 21:08:05 10° SSE visible
24 Feb - 06:08:39 10° SSW 06:11:45 21° SSE 06:15:15 10° E daylight
24 Feb - 07:55:38 10° WSW 08:00:01 59° NNW 08:05:30 10° NE daylight
24 Feb - 09:45:58 10° WNW 09:49:19 16° NNW 09:53:04 10° NNE daylight
24 Feb - 17:07:17 10° NNW 17:13:52 26° NNE 17:19:58 10° E daylight
24 Feb - 18:55:42 10° NW 19:03:38 77° NNE 19:10:16 10° ESE visible
24 Feb - 20:46:34 10° W 20:52:36 30° SSW 20:57:41 10° SSE visible
25 Feb - 05:58:15 10° SSW 06:01:31 26° SSE 06:05:16 10° E daylight
25 Feb - 07:45:43 10° W 07:49:50 44° NNW 07:54:53 10° NE daylight
25 Feb - 09:36:58 10° NW 09:39:13 12° NNW 09:41:39 10° N daylight
25 Feb - 15:10:33 10° N 15:12:59 11° NNE 15:15:27 10° NE daylight
25 Feb - 16:56:27 10° NNW 17:03:31 31° NNE 17:10:06 10° E daylight
25 Feb - 18:45:06 10° WNW 18:53:12 89° NNE 19:00:04 10° ESE visible
25 Feb - 20:36:24 10° W 20:42:14 26° SSW 20:47:16 10° SSE visible
26 Feb - 05:47:54 10° SW 05:51:20 34° SSE 05:55:12 10° E visible
26 Feb - 07:35:53 10° W 07:39:40 33° NNW 07:44:14 10° NE daylight
26 Feb - 14:59:17 10° N 15:02:46 13° NNE 15:06:18 10° NE daylight
26 Feb - 16:45:42 10° NW 16:53:07 36° NNE 17:00:08 10° E daylight
26 Feb - 18:34:34 10° WNW 18:42:44 78° SSW 18:49:48 10° SE visible
26 Feb - 20:26:18 10° W 20:31:53 23° SSW 20:36:46 10° SSE visible
27 Feb - 05:37:37 10° SW 05:41:09 44° SSE 05:45:05 10° ENE visible
27 Feb - 07:26:09 10° W 07:29:32 25° NNW 07:33:30 10° NNE daylight
27 Feb - 14:48:16 10° N 14:52:32 15° NNE 14:56:52 10° NE daylight
27 Feb - 16:34:59 10° NW 16:42:41 42° NNE 16:50:05 10° E daylight
27 Feb - 18:24:05 10° WNW 18:32:16 67° SSW 18:39:28 10° SE visible
27 Feb - 20:16:18 10° WSW 20:21:32 20° SSW 20:26:12 10° SSE visible
28 Feb - 05:27:24 10° SW 05:30:59 62° SSE 05:34:56 10° ENE visible
28 Feb - 07:16:34 10° WNW 07:19:26 19° NNW 07:22:39 10° NNE daylight
28 Feb - 14:37:23 10° NNW 14:42:14 17° NNE 14:47:15 10° ENE daylight
28 Feb - 16:24:20 10° NW 16:32:13 49° NNE 16:39:55 10° ESE daylight
28 Feb - 18:13:41 10° WNW 18:21:46 58° SSW 18:29:04 10° SE daylight
28 Feb - 20:06:24 10° WSW 20:11:12 18° SSW 20:15:35 10° S visible
01 Mar - 03:31:38 10° SSE 03:32:33 11° SSE 03:33:27 10° SE visible
01 Mar - 05:17:14 10° WSW 05:20:49 87° SSE 05:24:42 10° ENE visible
01 Mar - 07:07:14 10° WNW 07:09:20 14° NNW 07:11:37 10° N daylight
01 Mar - 14:26:36 10° NNW 14:31:54 20° NNE 14:37:28 10° ENE daylight
01 Mar - 16:13:46 10° NW 16:21:43 57° NNE 16:29:41 10° ESE daylight
01 Mar - 18:03:20 10° WNW 18:11:17 50° SSW 18:18:37 10° SE daylight
01 Mar - 19:56:36 10° WSW 20:00:53 15° SSW 20:04:52 10° S visible
02 Mar - 03:20:18 10° S 03:22:26 14° SSE 03:24:30 10° ESE visible
02 Mar - 05:07:06 10° WSW 05:10:42 66° NNW 05:14:26 10° NE visible
02 Mar - 06:58:53 10° NNW 06:59:16 10° NNW 06:59:38 10° NNW daylight
02 Mar - 14:15:53 10° NNW 14:21:33 22° NNE 14:27:35 10° ENE daylight
02 Mar - 16:03:14 10° NW 16:11:13 67° NNE 16:19:22 10° ESE daylight
02 Mar - 17:53:04 10° W 18:00:48 43° SSW 18:08:06 10° SE daylight
02 Mar - 19:46:58 10° SW 19:50:37 14° SSW 19:54:04 10° S visible
